Voltar ao catálogo

ONEWEB-0301

AtivoComunicaçõesPO
NORAD 49090·PAYLOAD·🇬🇧 United Kingdom

Lançado Aug 21, 2021 de Baikonur Cosmodrome

Loading…

Próximas Passagens (próximas 24 horas)

TLE

AtualizadoSource: CelesTrak SupGP

Época: Sep 14, 2026, 14:42 UTC

1 49090C 21075R   26257.61303657  .00004089  00000+0  11382-1 0  2573
2 49090  87.8987 332.9036 0002246  99.3730   6.3275 13.12437349    13

Acompanhe ONEWEB-0301 em tempo real com AllMySat

Download on the App Store